sat.trackr.live / text

‹ back to catalog

STARLINK-36675

NORAD 67663 · 2026-022R

PAYLOAD ACTIVE UNKNOWN

§ Identity

Operator
Country
US
Launch date
2026-02-02
Launch site
AFWTR
Launch vehicle
Mass (kg)
RCS (m²)

Purposes: comms

External: N2YO · Heavens-Above · Gunter

§ Orbital elements

Epoch: 2026-09-19T08:17:48.823008Z

Period
93.91 min
Inclination
97.2841°
Eccentricity
0.0001516
Mean motion
15.33442346 rev/d
Perigee alt
464.5 km
Apogee alt
466.6 km
Semi-major
6,843.7 km
B*
5.1477e-4
RAAN
293.9778°
Arg perigee
98.5099°
Mean anomaly
261.6316°
Rev number
3,525

§ Raw data

STARLINK-366751 67663U 26022R   26262.34570397  .00016579  00000+0  51477-3 0  99902 67663  97.2841 293.9778 0001516  98.5099 261.6316 15.33442346 35254

JSON: /api/v1/satellites/67663 · /tle

For live sub-satellite position, see the globe view (requires WebGL).

§ Visibility from observer

Set your observer location to see the next 7 days of passes ≥ 10°. The values pass through the URL so the page stays shareable.

No JS? Fill the form by hand. The geolocation button needs JavaScript.